When you browse on this site, cookies collect data to enhance your experience and personalize the content and advertising you see.
Visit our Privacy Policy to learn more. By continuing to use the site, you agree to this use of cookies and data.
  • In United Kingdom
  • List of Countries
  • For 7 days
  • Water Temperature
  • Satellite Maps
  • Weather Map
  • Weather Widgets
  • user-avatar
    Login

    Hourly Weather Gorodenka

    Today, 11 December, Tuesday

    Time Temperature Precipitation Wind Pressure Humidity
    00:00 -3°C° 0 mm 2 mps 731 mmHg 100%
    01:00 -4°C° 0 mm 3 mps 731 mmHg 100%
    02:00 -3°C° 0 mm 2 mps 731 mmHg 99%
    03:00 -3°C° 0 mm 2 mps 731 mmHg 100%
    04:00 -4°C° 0 mm 2 mps 731 mmHg 100%
    05:00 -4°C° 0 mm 2 mps 731 mmHg 100%
    06:00 -4°C° 0 mm 2 mps 732 mmHg 100%
    07:00 -4°C° 0 mm 2 mps 732 mmHg 100%
    08:00 -5°C° 0 mm 2 mps 732 mmHg 100%
    09:00 -7°C° 0 mm 3 mps 732 mmHg 100%
    10:00 -5°C° 0 mm 2 mps 733 mmHg 100%
    11:00 -3°C° 0 mm 2 mps 733 mmHg 100%
    12:00 0°C° 0 mm 1 mps 733 mmHg 99%
    13:00 0°C° 0 mm 1 mps 733 mmHg 99%
    14:00 -1°C° 0 mm 0 mps 733 mmHg 99%
    15:00 0°C° 0 mm 1 mps 733 mmHg 100%
    16:00 -1°C° 0 mm 1 mps 733 mmHg 99%
    17:00 -2°C° 0 mm 1 mps 734 mmHg 100%
    18:00 -6°C° 0 mm 2 mps 734 mmHg 100%
    19:00 -7°C° 0 mm 2 mps 734 mmHg 100%
    20:00 -4°C° 0 mm 1 mps 734 mmHg 100%
    21:00 -4°C° 0 mm 1 mps 734 mmHg 100%
    22:00 -5°C° 0 mm 0 mps 734 mmHg 100%
    23:00 -4°C° 0 mm 1 mps 734 mmHg 100%

    Tomorrow, 12 December, Wednesday

    Time Temperature Precipitation Wind Pressure Humidity
    00:00 -5°C° 0 mm 0 mps 734 mmHg 100%
    01:00 -5°C° 0 mm 0 mps 734 mmHg 100%
    02:00 -5°C° 0 mm 0 mps 735 mmHg 100%
    03:00 -6°C° 0 mm 0 mps 735 mmHg 100%
    04:00 -6°C° 0 mm 0 mps 734 mmHg 100%
    05:00 -6°C° 0 mm 1 mps 735 mmHg 100%
    06:00 -6°C° 0 mm 1 mps 735 mmHg 100%
    07:00 -6°C° 0 mm 1 mps 735 mmHg 100%
    08:00 -7°C° 0 mm 2 mps 735 mmHg 100%
    09:00 -7°C° 0 mm 2 mps 735 mmHg 100%
    10:00 -7°C° 0 mm 2 mps 735 mmHg 100%
    11:00 -7°C° 0 mm 3 mps 735 mmHg 100%
    12:00 -8°C° 0 mm 4 mps 735 mmHg 100%
    13:00 -7°C° 0 mm 4 mps 735 mmHg 99%
    14:00 -7°C° 0 mm 4 mps 735 mmHg 100%
    15:00 -7°C° 0 mm 4 mps 735 mmHg 100%
    16:00 -8°C° 0 mm 5 mps 735 mmHg 100%
    17:00 -8°C° 0 mm 5 mps 735 mmHg 100%
    18:00 -9°C° 0 mm 6 mps 735 mmHg 100%
    19:00 -9°C° 0 mm 7 mps 735 mmHg 100%
    20:00 -8°C° 0 mm 7 mps 734 mmHg 100%
    21:00 -8°C° 0.5 mm 7 mps 734 mmHg 100%
    22:00 -7°C° 0.8 mm 7 mps 734 mmHg 100%
    23:00 -7°C° 0.8 mm 7 mps 734 mmHg 100%

    Day after tomorrow, 13 December, Thursday

    Time Temperature Precipitation Wind Pressure Humidity
    00:00 -7°C° 1 mm 7 mps 734 mmHg 100%
    01:00 -7°C° 1 mm 7 mps 734 mmHg 100%
    02:00 -7°C° 1 mm 7 mps 734 mmHg 100%
    03:00 -7°C° 0.7 mm 7 mps 734 mmHg 100%
    04:00 -6°C° 0.6 mm 6 mps 733 mmHg 100%
    05:00 -6°C° 0.4 mm 6 mps 733 mmHg 100%
    06:00 -6°C° 0.4 mm 6 mps 733 mmHg 100%
    07:00 -6°C° 0.4 mm 6 mps 734 mmHg 100%
    08:00 -6°C° 0.4 mm 6 mps 734 mmHg 100%
    09:00 -6°C° 0.2 mm 5 mps 734 mmHg 100%
    10:00 -6°C° 0.3 mm 5 mps 734 mmHg 100%
    11:00 -5°C° 0.3 mm 5 mps 734 mmHg 100%
    12:00 -5°C° 0.3 mm 5 mps 734 mmHg 100%
    13:00 -5°C° 0.3 mm 5 mps 734 mmHg 100%
    14:00 -5°C° 0.3 mm 5 mps 734 mmHg 100%
    15:00 -5°C° 0.3 mm 5 mps 734 mmHg 100%
    16:00 -6°C° 0.3 mm 5 mps 734 mmHg 100%
    17:00 -6°C° 0.3 mm 5 mps 735 mmHg 100%
    18:00 -6°C° 0.3 mm 5 mps 735 mmHg 100%
    19:00 -6°C° 0.3 mm 5 mps 735 mmHg 100%
    20:00 -6°C° 0.2 mm 5 mps 735 mmHg 100%
    21:00 -6°C° 0.2 mm 5 mps 736 mmHg 100%
    22:00 -7°C° 0.1 mm 5 mps 736 mmHg 100%
    23:00 -7°C° 0.1 mm 5 mps 736 mmHg 100%

    14 December, Friday

    Time Temperature Precipitation Wind Pressure Humidity
    00:00 -7°C° 0.1 mm 5 mps 737 mmHg 100%
    01:00 -7°C° 0.1 mm 5 mps 737 mmHg 100%
    02:00 -7°C° 0.1 mm 4 mps 737 mmHg 100%
    03:00 -7°C° 0.1 mm 4 mps 737 mmHg 100%
    04:00 -7°C° 0.1 mm 4 mps 737 mmHg 100%
    05:00 -7°C° 0.2 mm 4 mps 738 mmHg 100%
    06:00 -7°C° 0.2 mm 4 mps 738 mmHg 100%
    07:00 -7°C° 0.1 mm 4 mps 738 mmHg 100%
    08:00 -7°C° 0.1 mm 4 mps 738 mmHg 100%
    09:00 -8°C° 0 mm 4 mps 739 mmHg 100%
    10:00 -7°C° 0 mm 4 mps 739 mmHg 100%
    11:00 -7°C° 0 mm 4 mps 739 mmHg 99%
    12:00 -7°C° 0 mm 4 mps 740 mmHg 99%
    13:00 -6°C° 0 mm 3 mps 740 mmHg 98%
    14:00 -6°C° 0 mm 3 mps 740 mmHg 98%
    15:00 -6°C° 0 mm 3 mps 740 mmHg 99%
    16:00 -7°C° 0 mm 2 mps 740 mmHg 100%
    17:00 -8°C° 0 mm 2 mps 740 mmHg 100%
    18:00 -9°C° 0 mm 2 mps 741 mmHg 100%
    19:00 -10°C° 0 mm 2 mps 741 mmHg 100%
    20:00 -12°C° 0 mm 2 mps 741 mmHg 100%
    21:00 -12°C° 0 mm 2 mps 742 mmHg 100%
    22:00 -13°C° 0 mm 2 mps 742 mmHg 100%
    23:00 -13°C° 0 mm 2 mps 742 mmHg 100%

    15 December, Saturday

    Time Temperature Precipitation Wind Pressure Humidity
    00:00 -14°C° 0 mm 2 mps 742 mmHg 100%
    01:00 -14°C° 0 mm 2 mps 742 mmHg 100%
    02:00 -15°C° 0 mm 2 mps 742 mmHg 100%

    16 December, Sunday

    Time Temperature Precipitation Wind Pressure Humidity
    Show more